Location: W�rzburg
(49.7529°N, 9.8822°E)
Time: 00:12:14
(UTC+01:00)

ISS - Pass Details

Date: 13 January 2018
Orbit: 401 x 406 km, 51.6° (Epoch: 17 January)

Event Time Altitude Azimuth Distance (km) Brightness Sun altitude
Exits shadow 05:34:43 27° 130° (SE) 821 -1.8 -24.9°
Drops below altitude 10° 05:36:22 10° 122° (ESE) 1,461 -0.2 -24.6°
Sets 05:38:27 0° 119° (ESE) 2,320 1.1 -24.3°
